Time,TemperatureF,DewpointF,PressureIn,WindDirection,WindDirectionDegrees,WindSpeedMPH,WindSpeedGustMPH,Humidity,HourlyPrecipIn,Conditions,Clouds,dailyrainin,SoftwareType,DateUTC
2013-05-02 00:00:00,63.9,48.8,30.19,NE,49,1.0,8.0,58,0.00,,,0.06,Wunderground v.1.15,2013-05-02 04:00:00,
2013-05-02 00:05:00,64.0,48.9,30.19,NE,49,1.0,8.0,58,0.00,,,0.00,Wunderground v.1.15,2013-05-02 04:05:00,
2013-05-02 00:10:00,64.0,48.9,30.19,NE,49,1.0,8.0,58,0.00,,,0.00,Wunderground v.1.15,2013-05-02 04:10:00,
2013-05-02 00:15:00,63.9,48.8,30.19,NE,49,1.0,8.0,58,0.00,,,0.00,Wunderground v.1.15,2013-05-02 04:15:00,
2013-05-02 00:20:00,63.9,48.4,30.19,NE,49,1.0,1.0,57,0.00,,,0.00,Wunderground v.1.15,2013-05-02 04:20:00,
2013-05-02 00:30:00,64.0,48.5,30.19,ENE,57,1.0,8.0,57,0.00,,,0.00,Wunderground v.1.15,2013-05-02 04:30:00,
2013-05-02 00:35:00,64.0,48.5,30.19,ENE,57,1.0,8.0,57,0.00,,,0.00,Wunderground v.1.15,2013-05-02 04:35:00,
2013-05-02 00:40:00,64.0,48.5,30.19,ENE,61,2.0,2.0,57,0.00,,,0.00,Wunderground v.1.15,2013-05-02 04:40:00,
2013-05-02 00:50:00,64.0,48.5,30.18,NE,40,2.0,8.0,57,0.00,,,0.00,Wunderground v.1.15,2013-05-02 04:50:00,
2013-05-02 01:00:00,64.1,48.5,30.18,NE,52,2.0,2.0,57,0.00,,,0.00,Wunderground v.1.15,2013-05-02 05:00:00,
2013-05-02 01:05:00,64.1,48.1,30.18,NE,51,2.0,8.0,56,0.00,,,0.00,Wunderground v.1.15,2013-05-02 05:05:00,
2013-05-02 01:10:00,64.1,48.1,30.18,ENE,72,2.0,2.0,56,0.00,,,0.00,Wunderground v.1.15,2013-05-02 05:10:00,
2013-05-02 01:20:00,64.1,48.1,30.18,NE,53,2.0,2.0,56,0.00,,,0.00,Wunderground v.1.15,2013-05-02 05:20:00,
2013-05-02 01:25:00,64.2,48.2,30.18,NE,47,1.0,8.0,56,0.00,,,0.01,Wunderground v.1.15,2013-05-02 05:25:00,
2013-05-02 01:35:00,64.3,48.3,30.18,NE,46,1.0,8.0,56,0.00,,,0.01,Wunderground v.1.15,2013-05-02 05:35:00,
2013-05-02 01:45:00,64.3,48.3,30.18,NE,50,2.0,2.0,56,0.00,,,0.01,Wunderground v.1.15,2013-05-02 05:45:00,
2013-05-02 01:50:00,64.3,48.3,30.18,SSE,162,2.0,8.0,56,0.00,,,0.01,Wunderground v.1.15,2013-05-02 05:50:00,
2013-05-02 02:00:00,64.3,48.3,30.18,South,172,2.0,2.0,56,0.00,,,0.01,Wunderground v.1.15,2013-05-02 06:00:00,
2013-05-02 02:10:00,64.4,48.4,30.18,East,98,1.0,8.0,56,0.00,,,0.01,Wunderground v.1.15,2013-05-02 06:10:00,
2013-05-02 02:20:00,64.3,48.3,30.17,ESE,123,2.0,8.0,56,0.00,,,0.01,Wunderground v.1.15,2013-05-02 06:20:00,
2013-05-02 02:30:00,64.3,48.7,30.17,SE,140,2.0,8.0,57,0.00,,,0.01,Wunderground v.1.15,2013-05-02 06:30:00,
2013-05-02 02:40:00,64.2,48.6,30.17,ENE,58,2.0,8.0,57,0.00,,,0.01,Wunderground v.1.15,2013-05-02 06:40:00,
2013-05-02 02:50:00,64.2,49.1,30.17,SSE,168,3.0,3.0,58,0.00,,,0.01,Wunderground v.1.15,2013-05-02 06:50:00,
2013-05-02 03:00:00,64.0,49.4,30.17,South,169,3.0,3.0,59,0.00,,,0.01,Wunderground v.1.15,2013-05-02 07:00:00,
2013-05-02 03:10:00,63.9,49.3,30.16,South,180,3.0,3.0,59,0.00,,,0.01,Wunderground v.1.15,2013-05-02 07:10:00,
2013-05-02 03:20:00,63.8,49.6,30.16,NE,56,3.0,8.0,60,0.00,,,0.01,Wunderground v.1.15,2013-05-02 07:20:00,
2013-05-02 03:30:00,63.7,49.5,30.16,ENE,78,3.0,3.0,60,0.00,,,0.01,Wunderground v.1.15,2013-05-02 07:30:00,
2013-05-02 03:40:00,63.6,49.5,30.16,SE,136,3.0,3.0,60,0.00,,,0.01,Wunderground v.1.15,2013-05-02 07:40:00,
2013-05-02 03:49:00,63.6,49.5,30.16,NE,55,2.0,8.0,60,0.00,,,0.01,Wunderground v.1.15,2013-05-02 07:49:00,
2013-05-02 03:55:00,63.5,49.8,30.16,ENE,62,2.0,8.0,61,0.00,,,0.01,Wunderground v.1.15,2013-05-02 07:55:00,
2013-05-02 04:05:00,63.5,49.4,30.16,ENE,65,3.0,8.0,60,0.00,,,0.01,Wunderground v.1.15,2013-05-02 08:05:00,
2013-05-02 04:15:00,63.4,49.3,30.16,SSE,151,3.0,8.0,60,0.00,,,0.01,Wunderground v.1.15,2013-05-02 08:15:00,
2013-05-02 04:20:00,63.4,49.3,30.16,SSE,168,2.0,8.0,60,0.00,,,0.01,Wunderground v.1.15,2013-05-02 08:20:00,
2013-05-02 04:30:00,63.4,49.3,30.16,ESE,109,3.0,8.0,60,0.00,,,0.01,Wunderground v.1.15,2013-05-02 08:30:00,
2013-05-02 04:40:00,63.5,49.8,30.17,South,173,3.0,3.0,61,0.00,,,0.01,Wunderground v.1.15,2013-05-02 08:40:00,
2013-05-02 04:50:00,63.4,49.7,30.16,East,87,3.0,8.0,61,0.00,,,0.01,Wunderground v.1.15,2013-05-02 08:50:00,
2013-05-02 05:00:00,63.4,49.3,30.16,ENE,60,3.0,8.0,60,0.00,,,0.01,Wunderground v.1.15,2013-05-02 09:00:00,
2013-05-02 05:10:00,63.4,49.3,30.16,ENE,65,1.0,8.0,60,0.00,,,0.01,Wunderground v.1.15,2013-05-02 09:10:00,
2013-05-02 05:20:00,63.3,49.2,30.16,NE,34,3.0,3.0,60,0.00,,,0.01,Wunderground v.1.15,2013-05-02 09:20:00,
2013-05-02 05:24:00,63.3,49.2,30.16,ESE,120,2.0,8.0,60,0.00,,,0.01,Wunderground v.1.15,2013-05-02 09:24:00,
2013-05-02 05:30:00,63.3,49.2,30.16,NE,42,2.0,8.0,60,0.00,,,0.01,Wunderground v.1.15,2013-05-02 09:30:00,
2013-05-02 05:40:00,63.3,49.2,30.16,SSE,148,3.0,3.0,60,0.00,,,0.01,Wunderground v.1.15,2013-05-02 09:40:00,
2013-05-02 05:50:00,63.3,49.2,30.16,SE,146,2.0,2.0,60,0.00,,,0.01,Wunderground v.1.15,2013-05-02 09:50:00,
2013-05-02 05:59:00,63.2,49.1,30.16,NE,55,2.0,8.0,60,0.00,,,0.01,Wunderground v.1.15,2013-05-02 09:59:00,
2013-05-02 06:05:00,63.2,49.1,30.16,ENE,63,3.0,8.0,60,0.00,,,0.01,Wunderground v.1.15,2013-05-02 10:05:00,
2013-05-02 06:15:00,63.1,49.4,30.16,NE,55,3.0,5.0,61,0.00,,,0.01,Wunderground v.1.15,2013-05-02 10:15:00,
2013-05-02 06:25:00,63.1,49.4,30.17,South,171,3.0,8.0,61,0.00,,,0.01,Wunderground v.1.15,2013-05-02 10:25:00,
2013-05-02 06:29:00,63.1,49.4,30.17,ENE,61,2.0,8.0,61,0.00,,,0.01,Wunderground v.1.15,2013-05-02 10:29:00,
2013-05-02 06:35:00,63.0,49.8,30.17,NE,53,2.0,8.0,62,0.00,,,0.01,Wunderground v.1.15,2013-05-02 10:35:00,
2013-05-02 06:40:00,63.0,49.8,30.17,NE,39,2.0,8.0,62,0.00,,,0.01,Wunderground v.1.15,2013-05-02 10:40:00,
2013-05-02 06:50:00,62.9,49.7,30.17,NE,43,3.0,8.0,62,0.00,,,0.01,Wunderground v.1.15,2013-05-02 10:50:00,
2013-05-02 07:00:00,62.8,50.0,30.17,East,82,3.0,8.0,63,0.00,,,0.01,Wunderground v.1.15,2013-05-02 11:00:00,
2013-05-02 07:05:00,62.7,50.3,30.18,ENE,63,3.0,8.0,64,0.00,,,0.01,Wunderground v.1.15,2013-05-02 11:05:00,
2013-05-02 07:15:00,62.6,50.7,30.18,East,92,2.0,8.0,65,0.00,,,0.01,Wunderground v.1.15,2013-05-02 11:15:00,
2013-05-02 07:25:00,62.5,50.6,30.18,East,100,3.0,3.0,65,0.00,,,0.01,Wunderground v.1.15,2013-05-02 11:25:00,
2013-05-02 07:34:00,62.4,50.5,30.19,NE,52,2.0,3.0,65,0.00,,,0.01,Wunderground v.1.15,2013-05-02 11:34:00,
2013-05-02 07:40:00,62.3,50.4,30.19,NE,55,2.0,8.0,65,0.00,,,0.01,Wunderground v.1.15,2013-05-02 11:40:00,
2013-05-02 07:50:00,62.3,50.4,30.19,East,84,2.0,2.0,65,0.00,,,0.01,Wunderground v.1.15,2013-05-02 11:50:00,
2013-05-02 08:00:00,62.2,50.3,30.20,ESE,109,2.0,8.0,65,0.00,,,0.01,Wunderground v.1.15,2013-05-02 12:00:00,
2013-05-02 08:10:00,62.0,50.1,30.20,WNW,303,3.0,3.0,65,0.00,,,0.01,Wunderground v.1.15,2013-05-02 12:10:00,
2013-05-02 08:20:00,62.1,50.2,30.20,SE,135,3.0,3.0,65,0.00,,,0.01,Wunderground v.1.15,2013-05-02 12:20:00,
2013-05-02 08:30:00,62.1,49.8,30.21,North,351,3.0,8.0,64,0.00,,,0.01,Wunderground v.1.15,2013-05-02 12:30:00,
2013-05-02 08:40:00,62.3,50.4,30.20,ENE,78,3.0,8.0,65,0.00,,,0.01,Wunderground v.1.15,2013-05-02 12:40:00,
2013-05-02 08:49:00,62.4,50.9,30.21,SE,143,3.0,3.0,66,0.00,,,0.01,Wunderground v.1.15,2013-05-02 12:49:00,
2013-05-02 08:55:00,62.5,51.0,30.21,NE,47,3.0,8.0,66,0.00,,,0.01,Wunderground v.1.15,2013-05-02 12:55:00,
2013-05-02 09:05:00,62.8,51.7,30.21,ENE,74,2.0,8.0,67,0.00,,,0.01,Wunderground v.1.15,2013-05-02 13:05:00,
2013-05-02 09:10:00,62.9,51.8,30.22,NE,39,3.0,3.0,67,0.00,,,0.01,Wunderground v.1.15,2013-05-02 13:10:00,
2013-05-02 09:20:00,63.0,52.3,30.22,NE,44,2.0,8.0,68,0.00,,,0.01,Wunderground v.1.15,2013-05-02 13:20:00,
2013-05-02 09:29:00,62.9,51.8,30.21,NNE,31,3.0,8.0,67,0.00,,,0.01,Wunderground v.1.15,2013-05-02 13:29:00,
2013-05-02 09:35:00,63.1,52.0,30.22,East,79,3.0,8.0,67,0.00,,,0.01,Wunderground v.1.15,2013-05-02 13:35:00,
2013-05-02 09:45:00,63.2,52.9,30.22,East,98,3.0,8.0,69,0.00,,,0.01,Wunderground v.1.15,2013-05-02 13:45:00,
2013-05-02 09:55:00,63.2,52.9,30.22,ESE,122,2.0,8.0,69,0.00,,,0.01,Wunderground v.1.15,2013-05-02 13:55:00,
2013-05-02 10:05:00,63.2,52.9,30.22,ENE,57,2.0,8.0,69,0.00,,,0.01,Wunderground v.1.15,2013-05-02 14:05:00,
2013-05-02 10:10:00,63.4,53.0,30.22,East,101,2.0,2.0,69,0.00,,,0.01,Wunderground v.1.15,2013-05-02 14:10:00,
2013-05-02 10:20:00,63.5,53.1,30.22,NE,55,2.0,8.0,69,0.00,,,0.01,Wunderground v.1.15,2013-05-02 14:20:00,
2013-05-02 10:25:00,63.5,53.5,30.22,NE,55,3.0,8.0,70,0.00,,,0.01,Wunderground v.1.15,2013-05-02 14:25:00,
2013-05-02 10:35:00,63.4,53.0,30.22,ENE,58,3.0,8.0,69,0.00,,,0.01,Wunderground v.1.15,2013-05-02 14:35:00,
2013-05-02 10:45:00,63.6,53.2,30.22,East,88,2.0,8.0,69,0.00,,,0.01,Wunderground v.1.15,2013-05-02 14:45:00,
2013-05-02 10:50:00,63.8,53.8,30.21,NE,51,3.0,8.0,70,0.00,,,0.01,Wunderground v.1.15,2013-05-02 14:50:00,
2013-05-02 10:59:00,64.2,54.2,30.21,South,174,3.0,3.0,70,0.00,,,0.01,Wunderground v.1.15,2013-05-02 14:59:00,
2013-05-02 11:05:00,64.6,54.6,30.21,ENE,74,2.0,8.0,70,0.00,,,0.01,Wunderground v.1.15,2013-05-02 15:05:00,
2013-05-02 11:15:00,65.3,55.7,30.21,NE,55,3.0,8.0,71,0.00,,,0.01,Wunderground v.1.15,2013-05-02 15:15:00,
2013-05-02 11:25:00,65.6,57.5,30.21,NE,56,3.0,4.0,75,0.00,,,0.01,Wunderground v.1.15,2013-05-02 15:25:00,
2013-05-02 11:35:00,65.9,57.4,30.21,NNE,23,3.0,5.0,74,0.00,,,0.01,Wunderground v.1.15,2013-05-02 15:35:00,
2013-05-02 11:45:00,66.5,58.3,30.21,NE,56,3.0,8.0,75,0.00,,,0.01,Wunderground v.1.15,2013-05-02 15:45:00,
2013-05-02 11:55:00,66.7,58.9,30.20,NE,42,3.0,8.0,76,0.00,,,0.01,Wunderground v.1.15,2013-05-02 15:55:00,
2013-05-02 12:04:00,67.2,59.4,30.20,ENE,69,3.0,8.0,76,0.00,,,0.01,Wunderground v.1.15,2013-05-02 16:04:00,
2013-05-02 12:10:00,67.6,60.1,30.20,NNE,26,3.0,8.0,77,0.00,,,0.01,Wunderground v.1.15,2013-05-02 16:10:00,
2013-05-02 12:20:00,67.9,60.4,30.20,ENE,59,3.0,8.0,77,0.00,,,0.01,Wunderground v.1.15,2013-05-02 16:20:00,
2013-05-02 12:30:00,69.1,61.9,30.19,NE,47,3.0,8.0,78,0.00,,,0.02,Wunderground v.1.15,2013-05-02 16:30:00,
2013-05-02 12:39:00,69.8,62.6,30.19,NE,49,4.0,4.0,78,0.00,,,0.02,Wunderground v.1.15,2013-05-02 16:39:00,
2013-05-02 12:45:00,69.9,62.7,30.19,SSE,153,3.0,8.0,78,0.00,,,0.02,Wunderground v.1.15,2013-05-02 16:45:00,
2013-05-02 12:55:00,70.7,63.5,30.19,ENE,60,2.0,8.0,78,0.00,,,0.02,Wunderground v.1.15,2013-05-02 16:55:00,
2013-05-02 13:00:00,70.6,63.0,30.20,ENE,71,3.0,8.0,77,0.00,,,0.02,Wunderground v.1.15,2013-05-02 17:00:00,
2013-05-02 13:09:00,70.9,63.3,30.20,East,94,4.0,4.0,77,0.00,,,0.02,Wunderground v.1.15,2013-05-02 17:09:00,
2013-05-02 13:20:00,71.4,63.1,30.19,ENE,67,3.0,8.0,75,0.00,,,0.02,Wunderground v.1.15,2013-05-02 17:20:00,
2013-05-02 13:30:00,72.4,64.0,30.19,SSE,159,3.0,3.0,75,0.00,,,0.02,Wunderground v.1.15,2013-05-02 17:30:00,
2013-05-02 13:40:00,72.4,63.3,30.19,East,96,3.0,3.0,73,0.00,,,0.02,Wunderground v.1.15,2013-05-02 17:40:00,
2013-05-02 13:49:00,72.4,64.0,30.19,NE,53,3.0,3.0,75,0.00,,,0.02,Wunderground v.1.15,2013-05-02 17:49:00,
2013-05-02 14:00:00,71.3,63.7,30.19,NNE,15,3.0,8.0,77,0.00,,,0.02,Wunderground v.1.15,2013-05-02 18:00:00,
2013-05-02 14:10:00,70.2,63.0,30.20,NE,50,3.0,3.0,78,0.00,,,0.02,Wunderground v.1.15,2013-05-02 18:10:00,
2013-05-02 14:20:00,70.2,63.0,30.20,NE,37,2.0,8.0,78,0.00,,,0.02,Wunderground v.1.15,2013-05-02 18:20:00,
2013-05-02 14:29:00,69.6,62.4,30.20,ENE,71,4.0,4.0,78,0.00,,,0.02,Wunderground v.1.15,2013-05-02 18:29:00,
2013-05-02 14:40:00,68.8,60.9,30.19,ENE,58,3.0,8.0,76,0.00,,,0.02,Wunderground v.1.15,2013-05-02 18:40:00,
2013-05-02 14:50:00,69.0,61.1,30.19,NE,51,2.0,8.0,76,0.00,,,0.02,Wunderground v.1.15,2013-05-02 18:50:00,
2013-05-02 14:59:00,69.3,61.0,30.19,NE,56,2.0,2.0,75,0.00,,,0.02,Wunderground v.1.15,2013-05-02 18:59:00,
2013-05-02 15:10:00,69.2,60.9,30.19,NE,40,3.0,3.0,75,0.00,,,0.02,Wunderground v.1.15,2013-05-02 19:10:00,
2013-05-02 15:20:00,69.3,59.5,30.18,South,171,2.0,8.0,71,0.00,,,0.02,Wunderground v.1.15,2013-05-02 19:20:00,
2013-05-02 15:29:00,70.0,61.7,30.18,NE,51,3.0,8.0,75,0.00,,,0.02,Wunderground v.1.15,2013-05-02 19:29:00,
2013-05-02 15:40:00,70.6,63.0,30.17,NE,55,3.0,3.0,77,0.00,,,0.02,Wunderground v.1.15,2013-05-02 19:40:00,
2013-05-02 15:50:00,70.3,63.1,30.17,NE,54,3.0,3.0,78,0.00,,,0.02,Wunderground v.1.15,2013-05-02 19:50:00,
2013-05-02 15:55:00,70.3,63.1,30.17,East,95,3.0,8.0,78,0.00,,,0.02,Wunderground v.1.15,2013-05-02 19:55:00,
2013-05-02 16:04:00,70.5,63.3,30.16,NE,36,2.0,4.0,78,0.00,,,0.02,Wunderground v.1.15,2013-05-02 20:04:00,
2013-05-02 16:10:00,70.6,63.4,30.16,ENE,76,3.0,3.0,78,0.00,,,0.02,Wunderground v.1.15,2013-05-02 20:10:00,
2013-05-02 16:20:00,70.7,63.1,30.16,ENE,58,4.0,8.0,77,0.00,,,0.02,Wunderground v.1.15,2013-05-02 20:20:00,
2013-05-02 16:30:00,70.3,63.1,30.16,ENE,60,3.0,3.0,78,0.00,,,0.02,Wunderground v.1.15,2013-05-02 20:30:00,
2013-05-02 16:40:00,70.2,63.0,30.16,NE,55,3.0,8.0,78,0.00,,,0.02,Wunderground v.1.15,2013-05-02 20:40:00,
2013-05-02 16:45:00,70.0,62.5,30.16,NE,47,3.0,8.0,77,0.00,,,0.02,Wunderground v.1.15,2013-05-02 20:45:00,
2013-05-02 16:55:00,69.9,62.4,30.16,SE,124,3.0,8.0,77,0.00,,,0.02,Wunderground v.1.15,2013-05-02 20:55:00,
2013-05-02 17:00:00,69.8,62.3,30.16,East,82,3.0,3.0,77,0.00,,,0.02,Wunderground v.1.15,2013-05-02 21:00:00,
2013-05-02 17:10:00,69.5,62.3,30.16,North,9,4.0,4.0,78,0.00,,,0.02,Wunderground v.1.15,2013-05-02 21:10:00,
2013-05-02 17:20:00,69.2,62.0,30.16,NE,53,4.0,8.0,78,0.00,,,0.02,Wunderground v.1.15,2013-05-02 21:20:00,
2013-05-02 17:25:00,68.9,61.8,30.16,NE,36,4.0,8.0,78,0.00,,,0.02,Wunderground v.1.15,2013-05-02 21:25:00,
2013-05-02 17:35:00,68.4,61.3,30.16,ESE,108,3.0,8.0,78,0.00,,,0.02,Wunderground v.1.15,2013-05-02 21:35:00,
2013-05-02 17:40:00,68.0,60.5,30.16,SSE,151,3.0,8.0,77,0.00,,,0.02,Wunderground v.1.15,2013-05-02 21:40:00,
2013-05-02 17:45:00,67.5,60.4,30.16,SSE,162,4.0,8.0,78,0.00,,,0.02,Wunderground v.1.15,2013-05-02 21:45:00,
2013-05-02 17:55:00,67.1,60.0,30.16,SE,132,4.0,8.0,78,0.00,,,0.02,Wunderground v.1.15,2013-05-02 21:55:00,
2013-05-02 18:00:00,67.1,60.0,30.16,ESE,105,3.0,3.0,78,0.00,,,0.02,Wunderground v.1.15,2013-05-02 22:00:00,
2013-05-02 18:10:00,66.8,59.7,30.16,South,169,4.0,8.0,78,0.00,,,0.02,Wunderground v.1.15,2013-05-02 22:10:00,
2013-05-02 18:20:00,66.6,59.5,30.16,SE,134,3.0,3.0,78,0.00,,,0.02,Wunderground v.1.15,2013-05-02 22:20:00,
2013-05-02 18:25:00,66.6,59.5,30.16,South,183,3.0,8.0,78,0.00,,,0.02,Wunderground v.1.15,2013-05-02 22:25:00,
2013-05-02 18:35:00,66.6,59.5,30.16,East,98,2.0,8.0,78,0.00,,,0.02,Wunderground v.1.15,2013-05-02 22:35:00,
2013-05-02 18:45:00,66.6,59.5,30.16,SSE,150,2.0,8.0,78,0.00,,,0.02,Wunderground v.1.15,2013-05-02 22:45:00,
2013-05-02 18:50:00,66.6,59.5,30.16,SSE,167,2.0,2.0,78,0.00,,,0.02,Wunderground v.1.15,2013-05-02 22:50:00,
2013-05-02 19:00:00,66.5,59.4,30.16,East,101,2.0,8.0,78,0.00,,,0.02,Wunderground v.1.15,2013-05-02 23:00:00,
2013-05-02 19:05:00,66.3,59.2,30.16,SSE,149,3.0,8.0,78,0.00,,,0.02,Wunderground v.1.15,2013-05-02 23:05:00,
2013-05-02 19:14:00,66.2,59.1,30.16,South,184,3.0,8.0,78,0.00,,,0.02,Wunderground v.1.15,2013-05-02 23:14:00,
2013-05-02 19:20:00,66.1,59.0,30.16,South,169,2.0,8.0,78,0.00,,,0.02,Wunderground v.1.15,2013-05-02 23:20:00,
2013-05-02 19:30:00,66.1,59.0,30.17,ESE,115,2.0,2.0,78,0.00,,,0.02,Wunderground v.1.15,2013-05-02 23:30:00,
2013-05-02 19:40:00,65.9,58.5,30.16,South,170,1.0,1.0,77,0.00,,,0.02,Wunderground v.1.15,2013-05-02 23:40:00,
2013-05-02 19:49:00,65.7,58.3,30.16,ESE,117,1.0,8.0,77,0.00,,,0.02,Wunderground v.1.15,2013-05-02 23:49:00,
2013-05-02 19:55:00,65.6,58.2,30.17,ENE,66,2.0,8.0,77,0.00,,,0.02,Wunderground v.1.15,2013-05-02 23:55:00,
2013-05-02 20:05:00,65.4,58.0,30.16,NE,42,1.0,8.0,77,0.00,,,0.02,Wunderground v.1.15,2013-05-03 00:05:00,
2013-05-02 20:14:00,65.2,58.2,30.17,NE,55,2.0,8.0,78,0.00,,,0.02,Wunderground v.1.15,2013-05-03 00:14:00,
2013-05-02 20:19:00,65.2,57.8,30.17,NE,55,1.0,8.0,77,0.00,,,0.02,Wunderground v.1.15,2013-05-03 00:19:00,
2013-05-02 20:25:00,65.1,57.7,30.17,South,169,1.0,8.0,77,0.00,,,0.02,Wunderground v.1.15,2013-05-03 00:25:00,
2013-05-02 20:35:00,65.0,57.6,30.16,SE,136,2.0,8.0,77,0.00,,,0.02,Wunderground v.1.15,2013-05-03 00:35:00,
2013-05-02 20:45:00,64.7,57.3,30.16,ENE,60,2.0,8.0,77,0.00,,,0.02,Wunderground v.1.15,2013-05-03 00:45:00,
2013-05-02 20:54:00,64.5,56.8,30.16,SSE,157,1.0,8.0,76,0.00,,,0.02,Wunderground v.1.15,2013-05-03 00:54:00,
2013-05-02 21:00:00,64.4,56.7,30.17,East,92,1.0,1.0,76,0.00,,,0.02,Wunderground v.1.15,2013-05-03 01:00:00,
2013-05-02 21:10:00,64.2,56.1,30.17,ESE,119,1.0,8.0,75,0.00,,,0.02,Wunderground v.1.15,2013-05-03 01:10:00,
2013-05-02 21:19:00,64.1,55.6,30.18,ENE,60,1.0,8.0,74,0.00,,,0.02,Wunderground v.1.15,2013-05-03 01:19:00,
2013-05-02 21:30:00,63.9,55.1,30.18,ENE,60,0.0,8.0,73,0.00,,,0.02,Wunderground v.1.15,2013-05-03 01:30:00,
2013-05-02 21:35:00,63.8,54.6,30.17,ENE,61,0.0,8.0,72,0.00,,,0.02,Wunderground v.1.15,2013-05-03 01:35:00,
2013-05-02 21:45:00,63.6,54.0,30.17,ENE,59,0.0,8.0,71,0.00,,,0.02,Wunderground v.1.15,2013-05-03 01:45:00,
2013-05-02 21:54:00,63.4,53.4,30.17,ENE,59,1.0,8.0,70,0.00,,,0.02,Wunderground v.1.15,2013-05-03 01:54:00,
2013-05-02 22:00:00,63.3,53.0,30.17,ESE,118,0.0,8.0,69,0.00,,,0.02,Wunderground v.1.15,2013-05-03 02:00:00,
2013-05-02 22:10:00,63.1,52.4,30.17,NE,44,0.0,8.0,68,0.00,,,0.02,Wunderground v.1.15,2013-05-03 02:10:00,
2013-05-02 22:20:00,63.1,52.0,30.17,ENE,63,1.0,1.0,67,0.00,,,0.02,Wunderground v.1.15,2013-05-03 02:20:00,
2013-05-02 22:29:00,63.0,51.5,30.17,ENE,63,1.0,8.0,66,0.00,,,0.02,Wunderground v.1.15,2013-05-03 02:29:00,
2013-05-02 22:40:00,63.1,51.1,30.16,East,92,1.0,8.0,65,0.00,,,0.02,Wunderground v.1.15,2013-05-03 02:40:00,
2013-05-02 22:50:00,63.1,51.1,30.16,ENE,78,1.0,8.0,65,0.00,,,0.02,Wunderground v.1.15,2013-05-03 02:50:00,
2013-05-02 23:00:00,63.0,51.0,30.16,East,88,1.0,8.0,65,0.00,,,0.02,Wunderground v.1.15,2013-05-03 03:00:00,
2013-05-02 23:09:00,63.0,51.0,30.16,East,79,2.0,2.0,65,0.00,,,0.02,Wunderground v.1.15,2013-05-03 03:09:00,
2013-05-02 23:15:00,62.9,51.4,30.16,South,175,1.0,8.0,66,0.00,,,0.02,Wunderground v.1.15,2013-05-03 03:15:00,
2013-05-02 23:25:00,62.8,51.3,30.16,East,82,2.0,2.0,66,0.00,,,0.02,Wunderground v.1.15,2013-05-03 03:25:00,
2013-05-02 23:35:00,62.7,51.6,30.16,SE,126,1.0,8.0,67,0.00,,,0.02,Wunderground v.1.15,2013-05-03 03:35:00,
2013-05-02 23:39:00,62.7,51.6,30.16,ENE,58,1.0,1.0,67,0.00,,,0.02,Wunderground v.1.15,2013-05-03 03:39:00,
2013-05-02 23:45:00,62.6,51.9,30.15,ENE,57,1.0,3.0,68,0.00,,,0.02,Wunderground v.1.15,2013-05-03 03:45:00,
2013-05-02 23:50:00,62.5,52.6,30.15,NNE,33,2.0,8.0,70,0.00,,,0.02,Wunderground v.1.15,2013-05-03 03:50:00,